• In Portugal
  • List of Countries
  • For 7 days
  • Water Temperature
  • Satellite Maps
  • Weather Map
  • Weather Widgets
  • user-avatar
    Login

    Hourly Weather La Massana

    Today, 15 December, Friday

    Time Temperature Precipitation Wind Pressure Humidity
    00:00 -1°C° 0 mm 0 mps 603 mmHg 91%
    01:00 0°C° 0.1 mm 1 mps 603 mmHg 91%
    02:00 0°C° 0.1 mm 1 mps 602 mmHg 92%
    03:00 0°C° 0.1 mm 1 mps 602 mmHg 93%
    04:00 0°C° 0.2 mm 1 mps 602 mmHg 94%
    05:00 -1°C° 0.2 mm 1 mps 602 mmHg 95%
    06:00 -3°C° 0 mm 2 mps 601 mmHg 95%
    07:00 -3°C° 0.8 mm 2 mps 601 mmHg 92%
    08:00 -4°C° 0.8 mm 3 mps 602 mmHg 90%
    09:00 -5°C° 0.8 mm 3 mps 602 mmHg 87%
    10:00 -4°C° 0.1 mm 3 mps 602 mmHg 80%
    11:00 -2°C° 0.1 mm 3 mps 602 mmHg 72%
    12:00 -1°C° 0 mm 3 mps 603 mmHg 64%
    13:00 -2°C° 0 mm 3 mps 603 mmHg 62%
    14:00 -2°C° 0 mm 3 mps 603 mmHg 61%
    15:00 -2°C° 0 mm 3 mps 603 mmHg 60%
    16:00 -5°C° 0 mm 3 mps 602 mmHg 65%
    17:00 -5°C° 0 mm 2 mps 602 mmHg 69%
    18:00 -7°C° 0 mm 2 mps 601 mmHg 74%
    19:00 -7°C° 0 mm 2 mps 601 mmHg 75%
    20:00 -8°C° 0 mm 3 mps 602 mmHg 77%
    21:00 -8°C° 0 mm 3 mps 602 mmHg 78%
    22:00 -8°C° 0 mm 3 mps 602 mmHg 78%
    23:00 -8°C° 0 mm 3 mps 602 mmHg 78%

    Tomorrow, 16 December, Saturday

    Time Temperature Precipitation Wind Pressure Humidity
    00:00 -8°C° 0 mm 3 mps 603 mmHg 78%
    01:00 -8°C° 0.1 mm 3 mps 603 mmHg 79%
    02:00 -8°C° 0.1 mm 3 mps 603 mmHg 80%
    03:00 -8°C° 0.1 mm 3 mps 604 mmHg 81%
    04:00 -8°C° 0 mm 3 mps 604 mmHg 81%
    05:00 -8°C° 0 mm 3 mps 604 mmHg 81%
    06:00 -9°C° 0 mm 3 mps 604 mmHg 81%
    07:00 -8°C° 0 mm 3 mps 605 mmHg 78%
    08:00 -7°C° 0 mm 3 mps 606 mmHg 74%
    09:00 -7°C° 0 mm 3 mps 607 mmHg 70%
    10:00 -6°C° 0 mm 3 mps 608 mmHg 65%
    11:00 -5°C° 0 mm 3 mps 608 mmHg 60%
    12:00 -4°C° 0 mm 3 mps 609 mmHg 55%
    13:00 -4°C° 0 mm 3 mps 609 mmHg 57%
    14:00 -5°C° 0 mm 3 mps 609 mmHg 59%
    15:00 -5°C° 0 mm 3 mps 609 mmHg 61%
    16:00 -6°C° 0.1 mm 3 mps 609 mmHg 66%
    17:00 -7°C° 0.1 mm 3 mps 609 mmHg 72%
    18:00 -8°C° 0.1 mm 3 mps 609 mmHg 77%
    19:00 -8°C° 0.1 mm 3 mps 609 mmHg 77%
    20:00 -9°C° 0.1 mm 3 mps 610 mmHg 77%
    21:00 -9°C° 0.1 mm 3 mps 610 mmHg 78%
    22:00 -9°C° 0 mm 3 mps 610 mmHg 77%
    23:00 -9°C° 0 mm 3 mps 610 mmHg 77%

    Day after tomorrow, 17 December, Sunday

    Time Temperature Precipitation Wind Pressure Humidity
    00:00 -10°C° 0 mm 3 mps 611 mmHg 76%
    01:00 -10°C° 0 mm 3 mps 611 mmHg 75%
    02:00 -10°C° 0 mm 3 mps 611 mmHg 74%
    03:00 -12°C° 0 mm 3 mps 611 mmHg 73%
    04:00 -12°C° 0 mm 3 mps 611 mmHg 73%
    05:00 -12°C° 0 mm 3 mps 611 mmHg 73%
    06:00 -12°C° 0 mm 3 mps 611 mmHg 73%
    07:00 -10°C° 0 mm 3 mps 612 mmHg 70%
    08:00 -9°C° 0 mm 3 mps 613 mmHg 68%
    09:00 -8°C° 0 mm 3 mps 614 mmHg 65%
    10:00 -7°C° 0 mm 3 mps 614 mmHg 62%
    11:00 -5°C° 0 mm 3 mps 615 mmHg 59%
    12:00 -4°C° 0 mm 3 mps 615 mmHg 55%
    13:00 -4°C° 0 mm 3 mps 615 mmHg 57%
    14:00 -5°C° 0 mm 3 mps 615 mmHg 59%
    15:00 -5°C° 0 mm 3 mps 615 mmHg 60%
    16:00 -6°C° 0 mm 3 mps 615 mmHg 64%
    17:00 -7°C° 0 mm 3 mps 614 mmHg 68%
    18:00 -8°C° 0 mm 3 mps 614 mmHg 73%
    19:00 -8°C° 0 mm 3 mps 615 mmHg 74%
    20:00 -8°C° 0 mm 3 mps 615 mmHg 76%
    21:00 -7°C° 0 mm 3 mps 616 mmHg 78%
    22:00 -7°C° 0 mm 3 mps 616 mmHg 79%
    23:00 -7°C° 0 mm 3 mps 616 mmHg 80%

    18 December, Monday

    Time Temperature Precipitation Wind Pressure Humidity
    00:00 -7°C° 0 mm 3 mps 616 mmHg 81%
    01:00 -7°C° 0 mm 3 mps 616 mmHg 82%
    02:00 -8°C° 0 mm 3 mps 616 mmHg 83%
    03:00 -8°C° 0 mm 3 mps 616 mmHg 83%
    04:00 -8°C° 0 mm 3 mps 616 mmHg 83%
    05:00 -8°C° 0 mm 3 mps 616 mmHg 83%
    06:00 -9°C° 0 mm 3 mps 616 mmHg 84%
    07:00 -8°C° 0 mm 3 mps 617 mmHg 80%
    08:00 -7°C° 0 mm 3 mps 618 mmHg 76%
    09:00 -5°C° 0 mm 2 mps 618 mmHg 72%
    10:00 -3°C° 0 mm 2 mps 619 mmHg 68%
    11:00 -2°C° 0 mm 2 mps 619 mmHg 64%
    12:00 +1°C° 0 mm 2 mps 619 mmHg 60%
    13:00 -1°C° 0 mm 3 mps 619 mmHg 62%
    14:00 -1°C° 0 mm 3 mps 618 mmHg 64%
    15:00 -1°C° 0 mm 3 mps 618 mmHg 66%
    16:00 -2°C° 0 mm 3 mps 617 mmHg 70%
    17:00 -4°C° 0 mm 3 mps 617 mmHg 75%
    18:00 -5°C° 0 mm 3 mps 616 mmHg 79%
    19:00 -5°C° 0 mm 3 mps 617 mmHg 79%
    20:00 -4°C° 0 mm 3 mps 617 mmHg 80%
    21:00 -4°C° 0 mm 4 mps 617 mmHg 81%
    22:00 -4°C° 0.1 mm 4 mps 617 mmHg 82%
    23:00 -4°C° 0.1 mm 4 mps 617 mmHg 83%

    19 December, Tuesday

    Time Temperature Precipitation Wind Pressure Humidity
    00:00 -3°C° 0.1 mm 4 mps 616 mmHg 84%
    01:00 -3°C° 0.2 mm 4 mps 616 mmHg 85%
    02:00 -3°C° 0.2 mm 4 mps 616 mmHg 86%
    03:00 -3°C° 0.2 mm 4 mps 616 mmHg 87%
    04:00 -3°C° 0.1 mm 4 mps 616 mmHg 87%
    05:00 -3°C° 0.1 mm 4 mps 616 mmHg 88%
    06:00 -3°C° 0.1 mm 4 mps 616 mmHg 89%
    07:00 -3°C° 0 mm 4 mps 617 mmHg 87%
    08:00 -2°C° 0 mm 3 mps 618 mmHg 85%
    09:00 -2°C° 0 mm 3 mps 618 mmHg 83%
    10:00 -1°C° 0 mm 3 mps 618 mmHg 79%
    11:00 0°C° 0 mm 3 mps 619 mmHg 75%
    12:00 0°C° 0 mm 3 mps 619 mmHg 71%
    13:00 0°C° 0 mm 3 mps 619 mmHg 72%
    14:00 0°C° 0 mm 3 mps 619 mmHg 72%
    15:00 0°C° 0 mm 3 mps 618 mmHg 72%
    16:00 -2°C° 0 mm 2 mps 618 mmHg 76%
    17:00 -4°C° 0 mm 2 mps 618 mmHg 81%
    18:00 -5°C° 0 mm 2 mps 617 mmHg 85%
    19:00 -6°C° 0 mm 2 mps 618 mmHg 83%
    20:00 -6°C° 0 mm 2 mps 618 mmHg 82%
    21:00 -6°C° 0 mm 2 mps 618 mmHg 80%
    22:00 -6°C° 0 mm 2 mps 618 mmHg 78%
    23:00 -6°C° 0 mm 2 mps 618 mmHg 76%

    20 December, Wednesday

    Time Temperature Precipitation Wind Pressure Humidity
    00:00 -6°C° 0 mm 2 mps 618 mmHg 73%
    01:00 -6°C° 0 mm 2 mps 618 mmHg 71%
    02:00 -6°C° 0 mm 2 mps 618 mmHg 70%
    03:00 -6°C° 0 mm 2 mps 618 mmHg 68%
    04:00 -6°C° 0 mm 2 mps 618 mmHg 67%
    05:00 -7°C° 0 mm 2 mps 618 mmHg 67%
    06:00 -7°C° 0 mm 2 mps 618 mmHg 66%
    07:00 -6°C° 0 mm 2 mps 619 mmHg 64%
    08:00 -4°C° 0 mm 2 mps 620 mmHg 61%
    09:00 -3°C° 0 mm 2 mps 621 mmHg 58%
    10:00 -2°C° 0 mm 2 mps 621 mmHg 57%
    11:00 +1°C° 0 mm 2 mps 622 mmHg 55%
    12:00 +2°C° 0 mm 2 mps 622 mmHg 53%
    13:00 +2°C° 0 mm 2 mps 622 mmHg 57%
    14:00 +1°C° 0 mm 2 mps 622 mmHg 61%
    15:00 +1°C° 0 mm 2 mps 621 mmHg 64%
    16:00 -2°C° 0 mm 2 mps 621 mmHg 67%
    17:00 -3°C° 0 mm 2 mps 620 mmHg 69%
    18:00 -5°C° 0 mm 2 mps 620 mmHg 71%
    19:00 -5°C° 0 mm 2 mps 620 mmHg 71%
    20:00 -5°C° 0 mm 2 mps 620 mmHg 70%
    21:00 -5°C° 0 mm 2 mps 620 mmHg 70%
    22:00 -5°C° 0 mm 2 mps 620 mmHg 71%
    23:00 -5°C° 0 mm 2 mps 620 mmHg 72%
    Show more